DMSP 5D-3 F17 (USA 191)

Last updated on Sun Oct 06 2024 00:02:17 GMT+0000 (Coordinated Universal Time)

1 29522U 06050A 24279.53219193 .00001187 00000+0 64025-3 0 9994 2 29522 98.7455 287.8449 0010623 31.1253 329.0547 14.14600048924798
UTC large
Height (km)
Speed (km/s)
/
Latitude / Longitude
Inclination (degrees)
Orbital Period (minutes)
Azimuth
Elevation
Range (km)
Doppler Factor

Next 0 passes for location: London (51.5072 / 0.1276)

Sorry there are no passes over London.